SCP
0 -0 0 0 0 0 -0 -0 0 0 0 0 0 0 -0 -0 -0 0 0 -0 -0 -0 -0 -0 0 0 0 0 0 0 0 0 0 0 0 0 0 0 0 0 0 0 0 0
-0 0 -0 -0 -0 -0 0 -0 -0 0 0 0 0 -0 -0 0 0 0 0 0 0 -0 -0 -0 -0 -0 0 0 0 0 0 0 0 0 0 0 0 0 0 0 0 0 0 0
0 -0 -0 0 0 0 -0 0 0 0 0 0 0 0 -0 -0 -0 -0 -0 -0 -0 -0 -0 0 0 0 0 0 0 0 0 0 0 0 0 0 0 0 0 0 0 0 0 0
0 0 0 0 -0 0 -0 -0 0 0 0 0 0 0 -0 -0 -0 -0 -0 -0 -0 -0 -0 0 0 0 0 0 0 0 0 0 0 0 0 0 0 0 0 0 0 0 0 0
0 0 0 0 0 0 0 0 0 0 0 -0 -0 -0 0 -0 -0 -0 -0 -0 -0 -0 -0 -0 -0 -0 -0 0 0 0 0 0 0 0 0 0 0 0 0 0 0 0 0 0
0 0 0 0 0 0 0 0 0 0 0 0 -0 0 0 -0 -0 -0 -0 0 -0 -0 -0 -0 -0 -0 -0 -0 -0 -0 -0 -0 -0 0 0 0 0 0 0 0 0 0 0 0
0 0 0 0 0 0 0 0 0 0 0 0 0 0 0 0 0 0 -0 -0 0 0 -0 -0 -0 -0 -0 -0 -0 -0 0 0 0 0 0 0 0 0 0 0 0 0 0 0
0 0 0 0 0 0 0 0 0 0 0 0 0 0 0 0 0 0 0 0 0 0 0 0 0 0 -0 -0 0 0 0 0 0 0 0 0 0 0 0 -0 -0 0 0 0
0 0 0 0 0 0 0 0 0 0 0 0 0 0 0 0 0 0 0 0 0 0 0 0 0 0 0 0 0 0 0 0 0 0 0 0 0 0 0 0 0 0 0 0
0 0 0 0 0 0 0 0 0 0 0 0 0 0 0 0 0 0 0 0 0 0 0 0 0 0 0 0 0 0 0 0 0 0 0 0 0 0 0 0 0 0 0 0
0 0 0 0 0 0 0 0 0 0 0 0 0 0 0 0 0 0 0 0 0 0 0 0 0 0 0 0 0 0 0 0 0 0 0 0 0 0 0 0 0 0 0 0
0 0 0 0 0 0 0 0 0 0 0 0 0 0 0 0 0 0 0 0 0 0 0 0 0 0 0 0 0 0 0 0 0 0 0 0 0 0 0 0 0 0 0 0
0 0 0 0 0 0 0 0 0 0 0 0 0 0 0 0 0 0 0 0 0 0 0 0 0 0 0 0 0 0 0 0 0 0 0 0 0 0 0 0 0 0 0 0
0 0 0 0 0 0 0 0 0 0 0 0 0 0 0 0 0 0 0 0 0 0 0 0 0 0 0 0 0 0 0 0 0 0 0 0 0 0 0 0 0 0 0 0
0 0 0 -0 -0 0 0 0 0 0 0 0 0 0 0 0 0 0 0 0 0 0 0 0 0 0 0 0 0 0 0 0 0 0 0 0 0 0 0 0 0 0 0 0
-0 -0 -0 -0 -0 -0 0 0 0 0 0 0 0 0 0 0 0 0 0 0 0 0 0 0 0 0 0 0 0 0 0 0 0 0 0 0 0 0 0 0 0 0 0 0
-0 -0 -0 -0 0 0 0 0 0 0 0 0 0 0 0 0 0 0 0 0 0 0 0 0 0 0 0 0 0 0 0 0 0 0 0 0 0 0 0 0 0 0 0 0
-0 -0 0 0 0 0 0 0 0 0 0 0 0 0 0 0 0 0 0 0 0 0 0 0 0 0 0 0 0 0 0 0 0 0 0 0 0 0 0 0 0 0 0 0
0 0 0 0 0 0 0 0 0 0 0 0 0 0 0 0 0 0 0 0 0 0 0 0 0 0 0 0 0 0 0 0 0 0 0 0 0 0 0 0 0 0 0 0
-0 0 0 0 0 0 0 0 0 0 0 0 0 0 0 0 0 0 0 0 0 0 0 0 0 0 0 0 -0 -0 -0 0 0 0 0 0 0 0 0 0 0 0 0 0
0 0 -0 0 0 0 0 0 0 0 0 0 0 0 0 0 0 0 0 0 0 0 0 0 0 0 0 0 0 0 0 -0 -0 -0 0 0 0 0 0 0 0 0 0 0
0 -0 -0 -0 -0 0 0 0 0 0 0 0 0 0 0 0 0 0 0 0 0 0 0 0 0 0 0 0 0 0 0 0 0 0 0 -0 0 0 0 0 0 0 0 0
-0 -0 -0 -0 -0 0 0 0 0 0 0 0 0 0 0 0 0 0 0 0 0 0 0 0 0 0 0 0 0 0 0 0 0 0 0 0 0 0 0 0 0 0 0 0
-0 -0 -0 -0 -0 0 0 0 0 0 0 0 0 0 0 0 0 0 0 0 0 0 0 0 0 0 0 0 0 0 0 0 0 0 0 0 0 0 0 0 0 0 0 0
-0 -0 -0 -0 0 0 0 0 0 0 0 0 0 0 0 0 0 0 0 0 0 0 0 0 0 0 0 0 0 0 0 0 0 0 0 0 0 0 0 0 0 0 0 0
-0 -0 -0 -0 0 0 0 0 0 0 0 0 0 0 0 0 0 0 0 0 0 0 0 0 0 0 0 0 0 0 0 0 0 0 0 0 0 0 0 0 0 0 0 0
0 0 0 0 0 0 0 0 0 0 0 0 0 0 0 0 0 0 0 0 0 0 0 0 0 0 0 0 0 0 0 0 0 0 0 0 0 0 0 0 0 0 0 0
Wind_Speed_500mb
20 21 9 4 13 24 23 25 13 7 9 16 22 24 28 36 46 55 62 65 67 70 70 73 75 70 66 59 57 49 41 43 40 33 29 28 25 25 29 34 39 45 53 57
14 11 22 15 15 25 17 21 21 9 13 7 14 24 38 43 45 50 54 53 53 55 57 61 62 59 56 59 49 49 47 43 40 34 23 29 27 30 35 36 38 43 47 51
5 4 21 7 11 12 20 22 11 18 16 24 12 26 35 42 45 46 49 52 51 49 50 51 54 56 60 56 48 46 50 39 47 48 43 42 41 39 40 42 42 40 38 42
6 7 7 11 3 9 19 18 18 12 18 22 2 12 32 40 43 48 49 50 50 47 45 46 47 50 42 35 38 43 38 45 51 51 49 48 46 43 41 42 45 47 47 44
6 3 13 15 7 6 6 11 18 18 20 30 8 19 20 36 36 36 38 40 42 44 50 53 53 48 47 51 50 52 55 51 54 54 50 52 50 49 50 50 49 48 46 46
6 6 6 11 16 6 8 8 18 21 22 25 26 9 16 31 33 35 34 35 38 38 38 46 51 49 50 52 53 56 57 57 57 55 56 57 56 56 53 50 49 49 44 40
4 6 5 9 16 3 10 8 14 18 20 21 14 12 18 25 30 33 34 35 35 34 39 45 47 48 48 48 53 52 51 51 51 53 54 55 54 55 59 53 46 49 49 43
5 8 7 19 4 7 5 4 10 12 15 13 11 14 21 26 29 33 35 38 39 37 37 40 44 47 47 48 46 46 47 48 50 53 54 54 54 56 60 63 61 62 61 61
7 6 9 16 17 10 4 4 8 10 13 11 12 15 19 23 26 30 33 35 36 38 39 41 45 46 44 44 43 43 43 45 47 50 52 56 61 64 60 65 70 72 70 70
10 10 12 12 12 9 7 7 7 9 10 13 13 16 17 20 24 27 32 35 38 40 42 46 48 47 47 47 44 43 45 46 47 50 52 54 58 64 65 70 70 71 74 69
6 16 15 10 10 9 9 9 9 11 10 11 12 16 18 19 21 23 26 31 34 36 37 40 42 43 43 44 44 42 40 42 46 44 48 47 49 57 59 60 62 63 65 62
2 23 9 20 13 6 7 7 6 5 7 13 14 14 15 17 20 21 23 25 26 30 32 36 40 41 43 43 43 42 39 41 42 41 42 44 45 40 41 49 53 55 53 55
11 14 18 22 10 6 16 10 8 8 8 8 11 10 12 13 17 20 22 25 27 31 33 35 38 39 39 42 41 40 38 40 40 43 43 43 42 42 43 37 41 53 54 54
23 27 18 16 12 17 15 12 10 10 9 8 8 9 10 12 15 18 21 22 24 28 31 33 36 40 40 38 40 40 38 38 38 39 40 40 38 37 37 41 43 44 49 51
19 7 14 24 22 18 15 12 10 8 7 8 10 10 12 13 16 19 20 21 21 24 28 32 36 39 41 41 39 39 40 41 39 35 35 34 33 32 33 34 37 39 35 37
23 22 23 21 20 16 14 12 10 10 11 11 11 12 13 14 16 18 18 20 23 27 29 30 32 35 37 36 34 33 33 37 36 35 34 32 31 31 30 31 32 36 43 46
29 23 22 22 20 17 14 12 13 14 14 13 13 11 10 10 13 16 19 21 23 25 26 28 31 32 34 34 32 31 31 33 35 33 34 32 30 29 29 28 29 30 35 41
15 14 18 20 23 21 18 18 17 17 17 16 13 10 10 12 15 17 18 19 16 18 22 27 30 31 32 32 31 29 29 30 32 32 32 33 32 29 28 27 28 29 30 31
18 19 22 25 23 22 22 22 21 21 20 17 14 12 14 14 15 16 18 15 15 19 25 27 27 28 30 31 28 27 28 29 29 31 30 31 30 30 31 28 28 28 29 30
25 27 28 27 26 25 27 27 25 22 19 16 13 11 10 12 14 14 16 18 20 22 24 25 24 25 27 28 28 24 25 26 26 27 29 28 29 29 28 30 28 27 28 28
29 29 29 29 31 31 29 27 24 20 18 15 11 8 8 9 10 11 11 10 15 16 19 21 21 22 23 24 23 23 23 23 23 24 25 25 25 26 26 26 26 26 26 25
33 35 35 35 35 35 31 27 24 19 16 13 11 8 7 6 5 7 9 10 13 16 17 19 21 21 21 21 20 21 22 22 21 21 21 22 22 22 23 23 23 22 22 22
38 39 40 40 37 35 31 28 24 20 16 13 10 7 6 5 4 2 2 10 10 13 14 18 19 20 19 19 19 20 20 21 21 20 20 20 20 20 20 21 21 20 19 18
43 44 43 42 39 35 32 30 27 22 18 13 10 8 6 3 2 1 4 7 10 11 12 14 16 18 19 19 19 20 19 19 20 19 17 19 17 17 18 20 20 19 18 16
45 46 45 43 40 36 33 32 28 24 19 15 11 8 6 6 7 7 5 6 8 9 10 13 14 15 16 17 18 19 19 20 20 19 19 18 18 17 17 18 18 17 16 15
49 48 44 41 37 35 35 33 26 23 21 18 16 14 13 11 11 9 8 7 8 9 9 12 13 15 15 16 16 17 18 18 19 20 19 19 18 18 18 18 17 17 16 16
49 47 46 46 42 39 36 33 28 25 26 23 20 20 18 16 14 12 12 11 10 11 12 13 14 16 17 18 17 18 18 18 19 19 19 18 18 19 20 19 18 17 18 17
Wind_Direction_500mb
269 265 136 1 14 34 28 3 25 86 35 4 9 358 6 7 3 8 12 13 14 14 18 29 32 32 32 41 40 34 36 41 32 36 24 12 358 340 324 310 297 284 273 265
254 114 157 78 33 53 44 16 41 333 61 354 24 8 14 13 11 9 7 8 12 15 16 21 26 30 26 34 29 26 42 44 22 35 27 11 1 350 336 321 311 300 290 281
197 340 140 130 16 69 80 42 13 29 354 348 353 21 19 10 9 7 4 2 7 11 14 19 22 20 27 28 20 25 30 19 27 28 23 18 9 355 343 336 327 318 305 294
266 212 205 116 114 80 93 64 26 34 8 358 179 73 35 17 9 3 2 360 1 5 11 17 22 26 24 20 20 28 25 22 24 23 21 19 13 2 351 344 341 337 328 317
271 354 117 179 25 289 287 87 33 7 8 1 352 280 38 10 8 7 1 1 1 3 9 15 19 23 27 26 23 23 24 20 22 20 17 16 11 3 2 357 351 347 338 327
235 253 214 85 359 322 214 174 18 8 7 357 353 345 22 360 1 4 8 6 4 2 6 15 18 20 26 26 26 27 24 23 22 19 18 17 14 7 7 6 359 351 347 338
224 253 113 32 347 119 218 57 12 7 7 13 28 14 339 350 0 4 4 6 9 11 10 12 16 19 23 23 25 23 23 23 22 21 20 19 18 15 15 15 7 4 2 355
212 231 193 357 169 296 53 37 11 9 15 27 24 2 353 353 359 1 5 6 9 11 12 11 15 17 19 21 18 20 23 26 26 24 22 19 18 19 19 16 17 16 12 9
340 49 96 55 89 103 101 97 35 27 18 13 13 5 358 357 0 1 6 8 9 8 7 10 13 13 14 14 13 16 18 23 25 26 23 21 19 19 15 15 15 13 14 9
179 146 132 119 95 102 81 95 68 42 23 17 17 12 9 7 8 5 7 6 7 10 11 9 11 8 7 8 8 9 12 16 18 22 23 22 23 22 17 15 15 11 9 8
94 130 137 139 124 114 106 99 96 71 55 33 20 13 13 14 17 16 10 9 7 8 9 9 8 5 3 6 8 9 8 10 13 15 19 22 25 23 23 22 17 13 11 6
157 150 99 143 146 134 145 119 96 86 48 36 31 19 14 16 16 18 14 13 11 9 9 9 11 9 7 8 8 9 10 12 11 13 16 16 18 23 23 25 25 24 20 15
143 134 128 144 148 138 146 128 106 84 66 45 36 33 29 21 15 13 13 11 8 7 10 11 11 12 11 12 10 14 14 15 14 15 16 14 12 13 14 26 27 29 28 28
142 140 128 153 141 137 137 132 116 94 83 73 59 50 38 34 24 21 15 9 9 11 11 10 10 13 14 13 9 12 16 18 17 14 13 13 12 10 10 13 13 26 37 37
152 156 143 148 140 138 140 136 124 110 98 82 72 60 56 48 32 22 17 18 15 14 15 13 13 13 13 13 12 9 13 14 16 12 12 13 12 12 12 13 13 16 32 44
139 132 136 143 146 146 144 140 134 118 106 98 86 74 61 48 33 28 28 29 29 22 18 16 15 12 11 11 14 9 11 14 15 14 15 15 15 16 16 17 16 16 25 31
146 156 162 159 158 152 147 139 136 130 120 111 101 91 72 52 42 44 42 37 30 24 21 19 19 14 11 11 16 11 12 12 17 18 17 20 18 19 19 19 19 19 21 31
179 177 177 176 165 156 147 140 136 134 131 130 115 92 79 84 74 60 50 38 26 19 18 19 17 15 13 16 19 15 16 15 17 18 17 19 23 21 21 21 20 21 20 25
175 168 159 158 158 157 153 148 147 144 138 128 111 104 88 77 70 59 49 35 30 25 23 20 16 13 14 17 23 16 18 20 19 20 22 22 22 23 24 25 23 23 24 27
169 170 171 171 169 167 161 153 148 144 137 129 122 97 84 76 66 51 37 27 25 22 19 15 14 14 15 17 25 18 19 19 19 19 18 22 25 23 23 22 26 26 27 28
179 177 174 171 166 160 160 155 152 151 149 141 125 113 98 81 64 53 46 25 20 19 17 13 12 15 14 17 19 19 21 20 19 18 17 18 19 21 22 23 24 25 26 27
180 175 171 169 167 163 162 163 161 162 157 148 142 136 118 97 81 56 41 32 7 10 13 10 10 13 14 14 14 16 17 18 18 18 17 17 17 17 18 20 22 21 22 24
177 174 173 171 170 169 168 167 168 168 165 160 160 155 141 168 133 133 326 357 5 6 11 6 9 10 9 12 13 13 13 14 14 13 12 12 12 13 13 12 12 11 12 14
179 176 174 175 176 176 175 175 175 175 174 176 179 183 183 189 240 271 324 354 7 10 9 5 8 11 11 12 11 10 11 10 8 6 6 5 5 5 1 360 1 2 5 7
183 181 182 183 183 180 183 185 186 189 193 198 210 217 219 222 209 256 291 322 344 352 342 353 1 4 8 7 5 5 4 3 5 5 2 358 357 356 356 355 357 358 358 360
187 188 188 190 187 188 188 193 195 202 205 211 219 227 235 242 249 255 270 286 312 323 326 332 342 346 349 348 347 348 348 346 347 347 351 351 351 350 349 349 348 347 345 344
192 193 192 193 196 196 199 203 204 210 218 217 223 232 234 243 244 246 257 263 276 291 303 315 323 333 336 335 330 327 331 331 336 337 337 339 340 339 340 338 335 333 332 331
Wind_Speed_850mb
20 21 9 4 13 24 23 25 13 7 9 16 22 24 28 36 46 55 62 65 67 70 70 73 75 70 66 59 57 49 41 43 40 33 29 28 25 25 29 34 39 45 53 57
14 11 22 15 15 25 17 21 21 9 13 7 14 24 38 43 45 50 54 53 53 55 57 61 62 59 56 59 49 49 47 43 40 34 23 29 27 30 35 36 38 43 47 51
5 4 21 7 11 12 20 22 11 18 16 24 12 26 35 42 45 46 49 52 51 49 50 51 54 56 60 56 48 46 50 39 47 48 43 42 41 39 40 42 42 40 38 42
6 7 7 11 3 9 19 18 18 12 18 22 2 12 32 40 43 48 49 50 50 47 45 46 47 50 42 35 38 43 38 45 51 51 49 48 46 43 41 42 45 47 47 44
6 3 13 15 7 6 6 11 18 18 20 30 8 19 20 36 36 36 38 40 42 44 50 53 53 48 47 51 50 52 55 51 54 54 50 52 50 49 50 50 49 48 46 46
6 6 6 11 16 6 8 8 18 21 22 25 26 9 16 31 33 35 34 35 38 38 38 46 51 49 50 52 53 56 57 57 57 55 56 57 56 56 53 50 49 49 44 40
4 6 5 9 16 3 10 8 14 18 20 21 14 12 18 25 30 33 34 35 35 34 39 45 47 48 48 48 53 52 51 51 51 53 54 55 54 55 59 53 46 49 49 43
5 8 7 19 4 7 5 4 10 12 15 13 11 14 21 26 29 33 35 38 39 37 37 40 44 47 47 48 46 46 47 48 50 53 54 54 54 56 60 63 61 62 61 61
7 6 9 16 17 10 4 4 8 10 13 11 12 15 19 23 26 30 33 35 36 38 39 41 45 46 44 44 43 43 43 45 47 50 52 56 61 64 60 65 70 72 70 70
10 10 12 12 12 9 7 7 7 9 10 13 13 16 17 20 24 27 32 35 38 40 42 46 48 47 47 47 44 43 45 46 47 50 52 54 58 64 65 70 70 71 74 69
6 16 15 10 10 9 9 9 9 11 10 11 12 16 18 19 21 23 26 31 34 36 37 40 42 43 43 44 44 42 40 42 46 44 48 47 49 57 59 60 62 63 65 62
2 23 9 20 13 6 7 7 6 5 7 13 14 14 15 17 20 21 23 25 26 30 32 36 40 41 43 43 43 42 39 41 42 41 42 44 45 40 41 49 53 55 53 55
11 14 18 22 10 6 16 10 8 8 8 8 11 10 12 13 17 20 22 25 27 31 33 35 38 39 39 42 41 40 38 40 40 43 43 43 42 42 43 37 41 53 54 54
23 27 18 16 12 17 15 12 10 10 9 8 8 9 10 12 15 18 21 22 24 28 31 33 36 40 40 38 40 40 38 38 38 39 40 40 38 37 37 41 43 44 49 51
19 7 14 24 22 18 15 12 10 8 7 8 10 10 12 13 16 19 20 21 21 24 28 32 36 39 41 41 39 39 40 41 39 35 35 34 33 32 33 34 37 39 35 37
23 22 23 21 20 16 14 12 10 10 11 11 11 12 13 14 16 18 18 20 23 27 29 30 32 35 37 36 34 33 33 37 36 35 34 32 31 31 30 31 32 36 43 46
29 23 22 22 20 17 14 12 13 14 14 13 13 11 10 10 13 16 19 21 23 25 26 28 31 32 34 34 32 31 31 33 35 33 34 32 30 29 29 28 29 30 35 41
15 14 18 20 23 21 18 18 17 17 17 16 13 10 10 12 15 17 18 19 16 18 22 27 30 31 32 32 31 29 29 30 32 32 32 33 32 29 28 27 28 29 30 31
18 19 22 25 23 22 22 22 21 21 20 17 14 12 14 14 15 16 18 15 15 19 25 27 27 28 30 31 28 27 28 29 29 31 30 31 30 30 31 28 28 28 29 30
25 27 28 27 26 25 27 27 25 22 19 16 13 11 10 12 14 14 16 18 20 22 24 25 24 25 27 28 28 24 25 26 26 27 29 28 29 29 28 30 28 27 28 28
29 29 29 29 31 31 29 27 24 20 18 15 11 8 8 9 10 11 11 10 15 16 19 21 21 22 23 24 23 23 23 23 23 24 25 25 25 26 26 26 26 26 26 25
33 35 35 35 35 35 31 27 24 19 16 13 11 8 7 6 5 7 9 10 13 16 17 19 21 21 21 21 20 21 22 22 21 21 21 22 22 22 23 23 23 22 22 22
38 39 40 40 37 35 31 28 24 20 16 13 10 7 6 5 4 2 2 10 10 13 14 18 19 20 19 19 19 20 20 21 21 20 20 20 20 20 20 21 21 20 19 18
43 44 43 42 39 35 32 30 27 22 18 13 10 8 6 3 2 1 4 7 10 11 12 14 16 18 19 19 19 20 19 19 20 19 17 19 17 17 18 20 20 19 18 16
45 46 45 43 40 36 33 32 28 24 19 15 11 8 6 6 7 7 5 6 8 9 10 13 14 15 16 17 18 19 19 20 20 19 19 18 18 17 17 18 18 17 16 15
49 48 44 41 37 35 35 33 26 23 21 18 16 14 13 11 11 9 8 7 8 9 9 12 13 15 15 16 16 17 18 18 19 20 19 19 18 18 18 18 17 17 16 16
49 47 46 46 42 39 36 33 28 25 26 23 20 20 18 16 14 12 12 11 10 11 12 13 14 16 17 18 17 18 18 18 19 19 19 18 18 19 20 19 18 17 18 17
Wind_Direction_850mb
269 265 136 1 14 34 28 3 25 86 35 4 9 358 6 7 3 8 12 13 14 14 18 29 32 32 32 41 40 34 36 41 32 36 24 12 358 340 324 310 297 284 273 265
254 114 157 78 33 53 44 16 41 333 61 354 24 8 14 13 11 9 7 8 12 15 16 21 26 30 26 34 29 26 42 44 22 35 27 11 1 350 336 321 311 300 290 281
197 340 140 130 16 69 80 42 13 29 354 348 353 21 19 10 9 7 4 2 7 11 14 19 22 20 27 28 20 25 30 19 27 28 23 18 9 355 343 336 327 318 305 294
266 212 205 116 114 80 93 64 26 34 8 358 179 73 35 17 9 3 2 360 1 5 11 17 22 26 24 20 20 28 25 22 24 23 21 19 13 2 351 344 341 337 328 317
271 354 117 179 25 289 287 87 33 7 8 1 352 280 38 10 8 7 1 1 1 3 9 15 19 23 27 26 23 23 24 20 22 20 17 16 11 3 2 357 351 347 338 327
235 253 214 85 359 322 214 174 18 8 7 357 353 345 22 360 1 4 8 6 4 2 6 15 18 20 26 26 26 27 24 23 22 19 18 17 14 7 7 6 359 351 347 338
224 253 113 32 347 119 218 57 12 7 7 13 28 14 339 350 0 4 4 6 9 11 10 12 16 19 23 23 25 23 23 23 22 21 20 19 18 15 15 15 7 4 2 355
212 231 193 357 169 296 53 37 11 9 15 27 24 2 353 353 359 1 5 6 9 11 12 11 15 17 19 21 18 20 23 26 26 24 22 19 18 19 19 16 17 16 12 9
340 49 96 55 89 103 101 97 35 27 18 13 13 5 358 357 0 1 6 8 9 8 7 10 13 13 14 14 13 16 18 23 25 26 23 21 19 19 15 15 15 13 14 9
179 146 132 119 95 102 81 95 68 42 23 17 17 12 9 7 8 5 7 6 7 10 11 9 11 8 7 8 8 9 12 16 18 22 23 22 23 22 17 15 15 11 9 8
94 130 137 139 124 114 106 99 96 71 55 33 20 13 13 14 17 16 10 9 7 8 9 9 8 5 3 6 8 9 8 10 13 15 19 22 25 23 23 22 17 13 11 6
157 150 99 143 146 134 145 119 96 86 48 36 31 19 14 16 16 18 14 13 11 9 9 9 11 9 7 8 8 9 10 12 11 13 16 16 18 23 23 25 25 24 20 15
143 134 128 144 148 138 146 128 106 84 66 45 36 33 29 21 15 13 13 11 8 7 10 11 11 12 11 12 10 14 14 15 14 15 16 14 12 13 14 26 27 29 28 28
142 140 128 153 141 137 137 132 116 94 83 73 59 50 38 34 24 21 15 9 9 11 11 10 10 13 14 13 9 12 16 18 17 14 13 13 12 10 10 13 13 26 37 37
152 156 143 148 140 138 140 136 124 110 98 82 72 60 56 48 32 22 17 18 15 14 15 13 13 13 13 13 12 9 13 14 16 12 12 13 12 12 12 13 13 16 32 44
139 132 136 143 146 146 144 140 134 118 106 98 86 74 61 48 33 28 28 29 29 22 18 16 15 12 11 11 14 9 11 14 15 14 15 15 15 16 16 17 16 16 25 31
146 156 162 159 158 152 147 139 136 130 120 111 101 91 72 52 42 44 42 37 30 24 21 19 19 14 11 11 16 11 12 12 17 18 17 20 18 19 19 19 19 19 21 31
179 177 177 176 165 156 147 140 136 134 131 130 115 92 79 84 74 60 50 38 26 19 18 19 17 15 13 16 19 15 16 15 17 18 17 19 23 21 21 21 20 21 20 25
175 168 159 158 158 157 153 148 147 144 138 128 111 104 88 77 70 59 49 35 30 25 23 20 16 13 14 17 23 16 18 20 19 20 22 22 22 23 24 25 23 23 24 27
169 170 171 171 169 167 161 153 148 144 137 129 122 97 84 76 66 51 37 27 25 22 19 15 14 14 15 17 25 18 19 19 19 19 18 22 25 23 23 22 26 26 27 28
179 177 174 171 166 160 160 155 152 151 149 141 125 113 98 81 64 53 46 25 20 19 17 13 12 15 14 17 19 19 21 20 19 18 17 18 19 21 22 23 24 25 26 27
180 175 171 169 167 163 162 163 161 162 157 148 142 136 118 97 81 56 41 32 7 10 13 10 10 13 14 14 14 16 17 18 18 18 17 17 17 17 18 20 22 21 22 24
177 174 173 171 170 169 168 167 168 168 165 160 160 155 141 168 133 133 326 357 5 6 11 6 9 10 9 12 13 13 13 14 14 13 12 12 12 13 13 12 12 11 12 14
179 176 174 175 176 176 175 175 175 175 174 176 179 183 183 189 240 271 324 354 7 10 9 5 8 11 11 12 11 10 11 10 8 6 6 5 5 5 1 360 1 2 5 7
183 181 182 183 183 180 183 185 186 189 193 198 210 217 219 222 209 256 291 322 344 352 342 353 1 4 8 7 5 5 4 3 5 5 2 358 357 356 356 355 357 358 358 360
187 188 188 190 187 188 188 193 195 202 205 211 219 227 235 242 249 255 270 286 312 323 326 332 342 346 349 348 347 348 348 346 347 347 351 351 351 350 349 349 348 347 345 344
192 193 192 193 196 196 199 203 204 210 218 217 223 232 234 243 244 246 257 263 276 291 303 315 323 333 336 335 330 327 331 331 336 337 337 339 340 339 340 338 335 333 332 331